Natchitoches, LA

7:01 PM CDT on May 29, 2017 (GMT -0500)
Natchitoches Regional

Weather History for KIER - December, 2012

Change the Weather History Date:

Saturday, December 29, 2012

  Actual Average Record
Temperature  
Mean Temperature 38 °F -  
Max Temperature 45 °F 59 °F 77 °F (1951)
Min Temperature 29 °F 39 °F 20 °F (1961)
Degree Days  
Heating Degree Days 28    
Moisture  
Dew Point 26 °F    
Average Humidity 65    
Maximum Humidity 92    
Minimum Humidity 41    
Precipitation  
Precipitation 0.00 in - - ()
Sea Level Pressure  
Sea Level Pressure 30.32 in    
Wind  
Wind Speed 12 mph (NW)    
Max Wind Speed 20 mph    
Max Gust Speed 28 mph    
Visibility 10 miles    
Events      
Averages and records for this station are not official NWS values.
T = Trace of Precipitation, MM = Missing Value Source: NWS Daily Summary

Daily Weather History Graph

Daily Weather History Graph

Search for Another Location

Airport or City:

Trip Planner

Search our weather history database for the weather conditions in past years. The results will help you decide how hot, cold, wet, or windy it might be!

Date:

Astronomy

Dec. 29, 2012 Rise Set
Actual Time 7:11 AM CST 5:17 PM CST
Civil Twilight 6:44 AM CST 5:44 PM CST
Nautical Twilight 6:14 AM CST 6:15 PM CST
Astronomical Twilight 5:44 AM CST 6:44 PM CST
Moon 6:45 PM CST (12/29) 7:50 AM CST (12/29)
Length of Visible Light 11h 00m
Length of Day
10h 06m
Full, 98% of the Moon is Illuminated
Dec 29
Full
Jan 4
Last Quarter
Jan 11
New
Jan 18
First Quarter
Jan 26
Full

Hourly Weather History & Observations

Time (CST) Temp. Windchill Dew Point Humidity Pressure Visibility Wind Dir Wind Speed Gust Speed Precip Events Conditions
12:15 AM 39.6 °F 31.3 °F 34.3 °F 82% 30.12 in 10.0 mi NW 15.0 mph 21.9 mph N/A   Overcast
12:35 AM 39.4 °F 32.3 °F 34.7 °F 83% 30.13 in 10.0 mi NW 11.5 mph 18.4 mph N/A   Overcast
12:55 AM 39.2 °F 31.2 °F 33.8 °F 81% 30.13 in 10.0 mi NW 13.8 mph 20.7 mph N/A   Overcast
1:15 AM 38.8 °F 29.7 °F 33.3 °F 80% 30.13 in 10.0 mi NW 17.3 mph 25.3 mph N/A   Overcast
1:35 AM 39.0 °F 31.0 °F 32.9 °F 79% 30.14 in 10.0 mi NW 13.8 mph 24.2 mph N/A   Overcast
1:55 AM 38.5 °F 28.6 °F 32.9 °F 80% 30.15 in 10.0 mi NW 19.6 mph 27.6 mph N/A   Overcast
2:15 AM 37.0 °F 26.7 °F 31.5 °F 80% 30.16 in 10.0 mi NW 19.6 mph 26.5 mph N/A   Overcast
2:35 AM 36.9 °F 27.5 °F 30.2 °F 77% 30.17 in 10.0 mi NNW 16.1 mph 24.2 mph N/A   Overcast
2:55 AM 36.7 °F 28.9 °F 30.7 °F 79% 30.18 in 10.0 mi NW 11.5 mph 20.7 mph N/A   Overcast
3:15 AM 36.5 °F 27.4 °F 30.4 °F 78% 30.20 in 10.0 mi NW 15.0 mph 20.7 mph N/A   Overcast
3:35 AM 35.4 °F 26.0 °F 28.4 °F 76% 30.20 in 10.0 mi NW 15.0 mph 21.9 mph N/A   Overcast
3:55 AM 34.9 °F 24.2 °F 28.0 °F 76% 30.21 in 10.0 mi NW 18.4 mph 24.2 mph N/A   Mostly Cloudy
4:15 AM 33.6 °F 25.6 °F 27.9 °F 79% 30.22 in 10.0 mi NW 10.4 mph - N/A   Scattered Clouds
4:35 AM 33.1 °F 24.4 °F 28.2 °F 82% 30.22 in 10.0 mi WNW 11.5 mph - N/A   Clear
4:55 AM 32.9 °F 24.7 °F 27.9 °F 82% 30.22 in 10.0 mi NW 10.4 mph - N/A   Clear
5:15 AM 32.2 °F 23.2 °F 27.5 °F 83% 30.23 in 10.0 mi NW 11.5 mph - N/A   Clear
5:35 AM 32.0 °F 22.1 °F 27.3 °F 83% 30.23 in 10.0 mi NW 13.8 mph 17.3 mph N/A   Clear
6:15 AM 31.8 °F 21.8 °F 26.8 °F 82% 30.25 in 10.0 mi NW 13.8 mph - N/A   Clear
6:35 AM 31.6 °F 22.1 °F 26.4 °F 81% 30.26 in 10.0 mi NW 12.7 mph - N/A   Clear
6:55 AM 31.3 °F 22.1 °F 25.7 °F 80% 30.27 in 10.0 mi NW 11.5 mph - N/A   Clear
7:15 AM 30.9 °F 22.2 °F 25.3 °F 80% 30.28 in 10.0 mi NW 10.4 mph - N/A   Clear
7:35 AM 31.1 °F 23.1 °F 25.0 °F 78% 30.29 in 10.0 mi WNW 9.2 mph - N/A   Clear
7:55 AM 31.8 °F 23.9 °F 25.0 °F 76% 30.31 in 10.0 mi NW 9.2 mph - N/A   Clear
8:15 AM 32.0 °F 23.0 °F 24.8 °F 75% 30.31 in 10.0 mi WNW 11.5 mph - N/A   Clear
8:35 AM 32.5 °F 23.7 °F 24.8 °F 73% 30.33 in 10.0 mi NW 11.5 mph - N/A   Clear
8:55 AM 33.8 °F 24.8 °F 25.2 °F 71% 30.34 in 10.0 mi WNW 12.7 mph 19.6 mph N/A   Clear
9:15 AM 34.0 °F 24.6 °F 24.4 °F 68% 30.35 in 10.0 mi NW 13.8 mph 17.3 mph N/A   Clear
9:35 AM 35.2 °F 27.1 °F 24.1 °F 64% 30.36 in 10.0 mi NW 11.5 mph 17.3 mph N/A   Clear
9:55 AM 36.5 °F 28.2 °F 22.6 °F 57% 30.36 in 10.0 mi NW 12.7 mph 20.7 mph N/A   Clear
10:15 AM 37.8 °F 29.4 °F 22.8 °F 55% 30.37 in 10.0 mi NW 13.8 mph 18.4 mph N/A   Clear
10:35 AM 38.1 °F 29.1 °F 23.0 °F 55% 30.38 in 10.0 mi NW 16.1 mph 20.7 mph N/A   Clear
10:55 AM 39.2 °F 32.5 °F 23.4 °F 53% 30.38 in 10.0 mi NW 10.4 mph - N/A   Clear
11:15 AM 38.8 °F 30.8 °F 22.5 °F 52% 30.37 in 10.0 mi NW 13.8 mph 20.7 mph N/A   Clear
11:35 AM 40.1 °F 33.2 °F 22.8 °F 50% 30.36 in 10.0 mi NW 11.5 mph 19.6 mph N/A   Clear
11:55 AM 40.6 °F 34.3 °F 21.6 °F 47% 30.35 in 10.0 mi NW 10.4 mph 19.6 mph N/A   Clear
12:15 PM 41.2 °F 35.0 °F 21.6 °F 46% 30.35 in 10.0 mi NNW 10.4 mph 21.9 mph N/A   Clear
12:35 PM 41.7 °F 34.1 °F 21.6 °F 45% 30.35 in 10.0 mi WNW 15.0 mph 21.9 mph N/A   Clear
12:55 PM 42.3 °F 35.1 °F 22.3 °F 45% 30.33 in 10.0 mi NW 13.8 mph 21.9 mph N/A   Clear
1:15 PM 43.3 °F 37.7 °F 22.5 °F 44% 30.33 in 10.0 mi NW 10.4 mph 17.3 mph N/A   Clear
1:35 PM 43.9 °F 36.5 °F 23.2 °F 44% 30.33 in 10.0 mi NW 16.1 mph 21.9 mph N/A   Clear
1:55 PM 44.6 °F 38.8 °F 23.4 °F 43% 30.33 in 10.0 mi NNW 11.5 mph 21.9 mph N/A   Clear
2:15 PM 44.8 °F 39.0 °F 23.0 °F 42% 30.34 in 10.0 mi NW 11.5 mph 19.6 mph N/A   Clear
2:35 PM 44.8 °F 39.0 °F 22.6 °F 42% 30.34 in 10.0 mi NW 11.5 mph - N/A   Clear
2:55 PM 44.8 °F 39.4 °F 22.6 °F 42% 30.35 in 10.0 mi NNW 10.4 mph 19.6 mph N/A   Clear
3:15 PM 44.6 °F 38.1 °F 23.0 °F 43% 30.34 in 10.0 mi NW 13.8 mph - N/A   Clear
3:35 PM 45.0 °F 38.5 °F 22.6 °F 41% 30.34 in 10.0 mi NW 13.8 mph 19.6 mph N/A   Clear
3:55 PM 44.6 °F 38.4 °F 22.8 °F 42% 30.35 in 10.0 mi NW 12.7 mph 20.7 mph N/A   Clear
4:15 PM 43.7 °F 37.3 °F 22.8 °F 44% 30.35 in 10.0 mi NW 12.7 mph 19.6 mph N/A   Clear
4:35 PM 42.8 °F 38.0 °F 23.5 °F 47% 30.35 in 10.0 mi NW 8.1 mph - N/A   Clear
4:55 PM 41.9 °F 37.5 °F 24.1 °F 49% 30.36 in 10.0 mi NNW 6.9 mph - N/A   Clear
5:15 PM 41.4 °F 35.2 °F 23.5 °F 49% 30.36 in 10.0 mi NW 10.4 mph - N/A   Clear
5:35 PM 40.5 °F 34.6 °F 23.5 °F 51% 30.37 in 10.0 mi NNW 9.2 mph 16.1 mph N/A   Clear
5:55 PM 39.4 °F 34.5 °F 24.6 °F 56% 30.37 in 10.0 mi NW 6.9 mph - N/A   Clear
6:15 PM 39.6 °F 34.0 °F 24.6 °F 55% 30.38 in 10.0 mi NW 8.1 mph - N/A   Clear
6:35 PM 39.2 °F 35.0 °F 24.3 °F 55% 30.40 in 10.0 mi NNW 5.8 mph - N/A   Clear
6:55 PM 38.8 °F 35.4 °F 24.8 °F 57% 30.41 in 10.0 mi NNW 4.6 mph - N/A   Clear
7:15 PM 37.6 °F 34.0 °F 24.8 °F 60% 30.42 in 10.0 mi NNW 4.6 mph - N/A   Clear
7:35 PM 37.9 °F 34.4 °F 25.5 °F 61% 30.43 in 10.0 mi NNW 4.6 mph - N/A   Clear
7:55 PM 37.4 °F 33.8 °F 25.3 °F 62% 30.44 in 10.0 mi NW 4.6 mph - N/A   Clear
8:15 PM 37.2 °F 33.6 °F 25.3 °F 62% 30.44 in 10.0 mi NNW 4.6 mph - N/A   Clear
8:35 PM 36.5 °F 31.8 °F 25.3 °F 64% 30.45 in 10.0 mi North 5.8 mph - N/A   Clear
8:55 PM 35.4 °F 29.7 °F 24.6 °F 65% 30.45 in 10.0 mi North 6.9 mph - N/A   Clear
9:15 PM 34.7 °F 30.6 °F 24.3 °F 66% 30.45 in 10.0 mi North 4.6 mph - N/A   Clear
9:35 PM 34.3 °F 31.4 °F 24.3 °F 67% 30.45 in 10.0 mi North 3.5 mph - N/A   Clear
9:55 PM 34.2 °F 30.0 °F 24.4 °F 68% 30.45 in 10.0 mi North 4.6 mph - N/A   Clear
10:15 PM 32.9 °F - 24.3 °F 71% 30.45 in 10.0 mi Calm Calm - N/A   Clear
10:35 PM 32.5 °F - 25.3 °F 75% 30.45 in 10.0 mi Calm Calm - N/A   Clear
10:55 PM 31.8 °F - 25.9 °F 79% 30.45 in 10.0 mi Calm Calm - N/A   Clear
11:15 PM 31.3 °F - 27.1 °F 85% 30.47 in 10.0 mi Calm Calm - N/A   Clear
11:35 PM 29.3 °F - 27.3 °F 92% 30.46 in 10.0 mi Calm Calm - N/A   Clear